Weather History for Knox, IN

Change the Weather History Date:

Wednesday, April 24, 2013

  Actual Average (KVPZ) Record (KVPZ)
Temperature  
Mean Temperature 41 °F 52 °F  
Max Temperature 77 °F 63 °F 84 °F (2009)
Min Temperature 35 °F 41 °F 32 °F (2005)
Degree Days  
Heating Degree Days 24 13  
Month to date heating degree days 410  
Since 1 July heating degree days 5987  
Cooling Degree Days 0 0  
Month to date cooling degree days 0  
Year to date cooling degree days 0  
Moisture  
Dew Point 34 °F    
Average Humidity 80    
Maximum Humidity 99    
Minimum Humidity 51    
Precipitation  
Precipitation 0.00 in 0.10 in 0.84 in (2010)
Month to date precipitation 2.65  
Year to date precipitation 8.30  
Sea Level Pressure  
Sea Level Pressure 30.00 in    
Wind  
Wind Speed 14 mph (NW)    
Max Wind Speed 20 mph    
Max Gust Speed 22 mph    
Visibility 9 miles    
Events      
T = Trace of Precipitation, MM = Missing Value Source: NWS Daily Summary

Daily Weather History Graph

Daily Weather History Graph

Search for Another Location

Airport:

Trip Planner

Search our weather history database for the weather conditions in past years. The results will help you decide how hot, cold, wet, or windy it might be!

Date:

Astronomy

Apr. 24, 2013 Rise Set
Actual Time 5:53 AM CDT 7:36 PM CDT
Civil Twilight 5:23 AM CDT 8:06 PM CDT
Nautical Twilight 4:48 AM CDT 8:42 PM CDT
Astronomical Twilight 4:10 AM CDT 9:20 PM CDT
Moon 6:39 PM CDT (4/24) 4:57 AM CDT (4/24)
Length of Visible Light 14h 42m
Length of Day
13h 43m
Waxing Gibbous, 98% of the Moon is Illuminated
Apr 24
Waxing Gibbous
Apr 25
Full
May 2
Last Quarter
May 9
New
May 17
First Quarter

Hourly Weather History & Observations

Time (CDT) Temp. Windchill Dew Point Humidity Pressure Visibility Wind Dir Wind Speed Gust Speed Precip Events Conditions
12:15 AM 38.5 °F 29.6 °F 37.9 °F 98% 29.88 in 10.0 mi NNW 16.1 mph - N/A   Overcast
12:35 AM 38.1 °F 30.2 °F 37.6 °F 98% 29.88 in 7.0 mi North 12.7 mph - N/A   Overcast
12:55 AM 37.9 °F 30.0 °F 37.4 °F 98% 29.86 in 10.0 mi North 12.7 mph - N/A   Overcast
1:15 AM 37.9 °F 29.6 °F 37.4 °F 98% 29.88 in 10.0 mi NNW 13.8 mph - N/A   Overcast
1:35 AM 37.8 °F 28.3 °F 37.4 °F 99% 29.88 in 7.0 mi NNW 17.3 mph - N/A   Overcast
1:55 AM 37.6 °F 27.7 °F 37.0 °F 98% 29.88 in 7.0 mi NNW 18.4 mph 21.9 mph N/A   Overcast
2:15 AM 37.4 °F 27.8 °F 36.9 °F 98% 29.87 in 7.0 mi NNW 17.3 mph - N/A   Overcast
2:55 AM 37.4 °F 27.2 °F 36.5 °F 97% 29.88 in 10.0 mi North 19.6 mph - N/A   Overcast
3:15 AM 37.0 °F 26.7 °F 35.8 °F 95% 29.88 in 10.0 mi North 19.6 mph - N/A   Overcast
3:35 AM 37.0 °F 27.4 °F 35.6 °F 95% 29.88 in 10.0 mi North 17.3 mph - N/A   Overcast
3:55 AM 36.9 °F 26.8 °F 35.4 °F 95% 29.88 in 10.0 mi North 18.4 mph 21.9 mph N/A   Overcast
4:15 AM 36.9 °F 26.8 °F 35.1 °F 93% 29.89 in 10.0 mi North 18.4 mph 21.9 mph N/A   Overcast
4:35 AM 36.9 °F 27.5 °F 35.1 °F 93% 29.91 in 10.0 mi North 16.1 mph 19.6 mph N/A   Overcast
4:55 AM 37.0 °F 27.7 °F 35.1 °F 93% 29.92 in 10.0 mi North 16.1 mph - N/A   Overcast
5:15 AM 36.7 °F 28.0 °F 34.5 °F 92% 29.92 in 10.0 mi North 13.8 mph - N/A   Overcast
5:35 AM 36.5 °F 27.8 °F 34.0 °F 91% 29.92 in 10.0 mi North 13.8 mph 18.4 mph N/A   Overcast
5:55 AM 36.5 °F 27.8 °F 34.0 °F 91% 29.92 in 10.0 mi North 13.8 mph 18.4 mph N/A   Overcast
6:15 AM 36.5 °F 27.8 °F 34.0 °F 91% 29.92 in 10.0 mi North 13.8 mph - N/A   Overcast
6:35 AM 36.5 °F 27.4 °F 33.8 °F 90% 29.93 in 10.0 mi North 15.0 mph - N/A   Overcast
6:55 AM 36.3 °F 27.1 °F 33.1 °F 88% 29.94 in 10.0 mi North 15.0 mph 19.6 mph N/A   Overcast
7:15 AM 36.1 °F 26.9 °F 33.3 °F 89% 29.93 in 10.0 mi North 15.0 mph - N/A   Overcast
7:35 AM 36.1 °F 26.5 °F 33.1 °F 89% 29.93 in 10.0 mi North 16.1 mph - N/A   Overcast
8:15 AM 36.0 °F 25.6 °F 33.3 °F 90% 29.94 in 10.0 mi North 18.4 mph 21.9 mph N/A   Overcast
8:35 AM 36.1 °F 27.7 °F 32.9 °F 88% 29.94 in 10.0 mi North 12.7 mph - N/A   Overcast
8:55 AM 36.3 °F 27.5 °F 33.3 °F 89% 29.93 in 10.0 mi North 13.8 mph 18.4 mph N/A   Overcast
9:15 AM 36.3 °F 27.1 °F 33.3 °F 89% 29.93 in 10.0 mi North 15.0 mph - N/A   Overcast
9:35 AM 35.8 °F 27.3 °F 33.3 °F 91% 29.97 in 7.0 mi NNW 12.7 mph - N/A   Overcast
9:55 AM 35.6 °F 27.1 °F 34.0 °F 94% 29.99 in 4.0 mi NNW 12.7 mph - N/A   Overcast
10:15 AM 35.4 °F 29.0 °F 34.3 °F 96% 30.00 in 2.5 mi NNW 8.1 mph - N/A   Overcast
10:35 AM 36.0 °F 28.5 °F 34.5 °F 94% 30.01 in 7.0 mi NNW 10.4 mph - N/A   Overcast
10:55 AM 36.3 °F 30.1 °F 34.7 °F 94% 30.00 in 5.0 mi NNW 8.1 mph - N/A   Overcast
11:35 AM 38.1 °F 31.2 °F 34.9 °F 88% 29.99 in 10.0 mi NNW 10.4 mph - N/A   Overcast
11:55 AM 38.7 °F 31.4 °F 34.0 °F 83% 29.99 in 10.0 mi NNW 11.5 mph - N/A   Overcast
12:15 PM 39.2 °F 30.8 °F 33.8 °F 81% 30.01 in 10.0 mi NW 15.0 mph - N/A   Overcast
12:35 PM 39.4 °F 31.1 °F 33.8 °F 80% 30.02 in 10.0 mi NW 15.0 mph 19.6 mph N/A   Overcast
12:55 PM 39.9 °F 31.8 °F 33.8 °F 79% 30.03 in 10.0 mi NW 15.0 mph - N/A   Overcast
1:15 PM 40.1 °F 31.3 °F 32.4 °F 74% 30.03 in 10.0 mi NW 17.3 mph - N/A   Overcast
1:35 PM 40.3 °F 33.0 °F 32.0 °F 72% 30.04 in 10.0 mi NW 12.7 mph - N/A   Overcast
1:55 PM 41.0 °F 33.9 °F 32.4 °F 71% 30.04 in 10.0 mi NNW 12.7 mph - N/A   Mostly Cloudy
2:15 PM 41.5 °F 35.0 °F 32.2 °F 69% 30.05 in 10.0 mi WNW 11.5 mph 19.6 mph N/A   Mostly Cloudy
2:35 PM 41.9 °F 35.0 °F 32.9 °F 70% 30.05 in 10.0 mi NW 12.7 mph - N/A   Mostly Cloudy
2:55 PM 43.0 °F 36.0 °F 33.1 °F 68% 30.06 in 10.0 mi WNW 13.8 mph 18.4 mph N/A   Mostly Cloudy
3:15 PM 43.9 °F 36.8 °F 32.7 °F 65% 30.06 in 10.0 mi NW 15.0 mph 21.9 mph N/A   Mostly Cloudy
3:35 PM 44.6 °F 38.1 °F 33.3 °F 64% 30.06 in 10.0 mi NW 13.8 mph 18.4 mph N/A   Mostly Cloudy
4:15 PM 45.0 °F 38.5 °F 31.5 °F 59% 30.07 in 10.0 mi WNW 13.8 mph 19.6 mph N/A   Scattered Clouds
4:35 PM 45.3 °F 40.6 °F 31.1 °F 58% 30.07 in 10.0 mi WNW 9.2 mph - N/A   Scattered Clouds
5:15 PM 46.2 °F 42.2 °F 30.9 °F 55% 30.08 in 10.0 mi West 8.1 mph - N/A   Scattered Clouds
5:35 PM 46.2 °F 43.3 °F 31.3 °F 56% 30.08 in 10.0 mi WSW 5.8 mph - N/A   Clear
5:55 PM 46.8 °F - 32.2 °F 57% 30.08 in 10.0 mi WSW 8.1 mph - N/A   Scattered Clouds
6:15 PM 46.6 °F - 31.5 °F 56% 30.08 in 10.0 mi WNW 6.9 mph - N/A   Scattered Clouds
6:35 PM 47.3 °F - 30.0 °F 51% 30.08 in 10.0 mi West 12.7 mph 19.6 mph N/A   Scattered Clouds
6:55 PM 46.6 °F - 30.4 °F 53% 30.09 in 10.0 mi West 11.5 mph - N/A   Scattered Clouds
7:15 PM 45.7 °F 40.2 °F 31.3 °F 57% 30.10 in 10.0 mi WSW 11.5 mph 16.1 mph N/A   Scattered Clouds
7:35 PM 45.3 °F 40.6 °F 31.1 °F 58% 30.10 in 10.0 mi WSW 9.2 mph - N/A   Mostly Cloudy
7:55 PM 44.2 °F 38.8 °F 31.1 °F 60% 30.11 in 10.0 mi WSW 10.4 mph - N/A   Scattered Clouds
8:15 PM 43.5 °F 38.9 °F 31.1 °F 62% 30.12 in 10.0 mi WSW 8.1 mph - N/A   Clear
8:35 PM 42.8 °F 38.6 °F 31.3 °F 64% 30.13 in 10.0 mi SW 6.9 mph - N/A   Clear
8:55 PM 41.4 °F 36.8 °F 31.8 °F 69% 30.14 in 10.0 mi SSW 6.9 mph - N/A   Clear
10:35 PM 38.5 °F 33.4 °F 31.8 °F 77% 30.16 in 10.0 mi SSW 6.9 mph - N/A   Clear
10:55 PM 37.9 °F 32.7 °F 32.0 °F 79% 30.15 in 10.0 mi SSW 6.9 mph - N/A   Clear
11:15 PM 37.9 °F 32.7 °F 32.0 °F 79% 30.15 in 10.0 mi SSW 6.9 mph - N/A   Clear
11:35 PM 37.9 °F 32.7 °F 32.7 °F 81% 30.16 in 10.0 mi SSW 6.9 mph - N/A   Clear
11:55 PM 37.9 °F 32.1 °F 32.5 °F 81% 30.16 in 10.0 mi SSW 8.1 mph - N/A   Clear